Tracking 30072 objects as of 14-Jan-2025
HD Live streaming from Space Station
objects crossing your sky now

STARLINK-2693

Track STARLINK-2693 now!
10-day predictions
STARLINK-2693 is classified as:


NORAD ID: 48461
Int'l Code: 2021-040AK
Perigee: 453.0 km
Apogee: 455.3 km
Inclination: 53.0 °
Period: 93.5 minutes
Semi major axis: 6825 km
RCS: Unknown
Launch date: May 9, 2021
Source: United States (US)
Launch site: AIR FORCE EASTERN TEST RANGE (AFETR)
Your satellite tracking list
Your tracking list is empty




NASA's NSSDC Master Catalog

Two Line Element Set (TLE):
1 48461U 21040AK  25013.91667824  .00299015  00000-0  71753-2 0  9995
2 48461  53.0480 257.1647 0001667 103.9802 302.6261 15.39705429  5910
Source of the keplerian elements: AFSPC